Wind_Speed
22 23 23 23 24 25 26 26 27 27 27 27 28 28 28 28 28 29 29 29 30 30 30 31 30 30 29 28 27 27 26 26 25 25 25 25 25 25 26 26 26 26 27 27 27 27 28 28 28 28 28 29 30 30 30 30 30 29 28 28 28 28 27 28 29 30 30 30 30
22 24 25 26 26 27 29 29 30 30 30 30 30 30 30 30 30 30 30 31 31 31 32 32 31 31 30 29 28 27 27 26 26 25 25 25 25 25 25 26 26 26 27 27 27 27 28 28 28 28 28 29 29 30 30 31 30 29 29 29 28 27 27 27 29 30 31 30 30
22 23 24 25 26 28 29 30 31 32 33 33 33 33 33 32 32 32 32 32 33 33 33 33 33 32 31 30 29 28 27 27 26 25 25 25 25 25 25 25 26 26 27 27 27 28 28 27 27 28 28 29 29 30 30 30 29 29 28 29 28 27 27 27 28 29 29 29 29
21 22 23 24 25 26 27 29 30 31 32 33 33 33 34 34 34 34 34 35 35 35 35 35 34 33 32 31 30 29 28 27 27 26 25 25 25 25 25 25 25 26 26 27 27 28 28 27 27 27 28 29 29 30 30 29 28 28 28 28 28 27 27 28 28 28 28 28 29
21 21 22 23 23 24 25 26 28 29 30 31 32 32 33 33 34 34 35 35 35 36 36 36 36 35 34 32 31 30 29 29 28 27 27 26 26 25 25 25 25 25 25 26 26 27 27 27 27 27 28 29 29 30 31 30 28 27 27 28 28 28 28 28 29 29 28 28 29
22 23 23 23 23 24 24 25 26 27 28 29 29 30 31 32 33 33 34 35 35 35 36 36 36 36 36 34 33 32 31 30 29 28 28 27 27 26 26 25 25 24 25 25 25 26 26 27 27 28 28 29 30 31 31 30 28 28 27 27 28 28 28 29 29 29 29 29 29
23 24 24 24 24 24 24 25 25 25 26 27 27 28 29 30 31 32 33 34 34 34 35 35 36 37 37 36 35 33 32 32 31 30 29 29 28 27 26 26 25 25 24 24 24 25 25 26 27 28 28 28 29 30 31 30 29 28 28 28 28 28 29 30 29 29 29 30 31
23 23 24 24 25 25 25 25 25 25 25 26 26 27 27 28 29 30 31 32 33 33 34 34 35 36 36 36 35 34 34 33 32 31 30 29 29 28 27 26 26 25 25 24 24 24 24 25 26 27 28 28 28 29 30 30 30 30 30 30 29 29 29 30 31 31 31 32 33
22 23 23 23 24 24 24 24 24 24 25 25 25 26 26 26 27 28 28 29 30 31 32 33 34 34 35 35 35 35 34 34 33 32 31 30 29 28 27 27 26 26 25 24 24 23 23 24 25 26 27 28 29 29 30 30 30 31 32 31 30 30 30 30 30 31 32 32 34
22 22 22 22 22 22 23 23 23 24 24 25 25 25 26 26 26 26 27 27 28 29 30 31 32 32 33 33 34 34 34 33 33 31 30 29 29 28 28 27 27 27 26 26 25 24 23 23 25 26 27 28 29 30 30 30 31 32 32 32 31 30 31 31 31 31 32 32 34
21 21 21 21 21 21 21 22 22 23 24 24 25 25 26 26 26 26 26 27 27 28 29 29 30 31 31 32 32 33 33 33 32 31 30 29 28 28 28 28 28 28 27 27 26 25 25 24 25 27 28 28 29 30 31 31 32 33 33 33 32 32 32 32 32 31 32 32 34
20 20 19 20 20 20 21 21 22 22 23 24 25 25 26 26 27 27 27 27 27 28 28 28 29 30 30 31 31 32 32 32 32 31 30 30 29 29 28 28 28 28 29 28 28 27 27 27 27 28 29 30 30 30 31 32 33 33 34 34 34 33 33 34 34 33 32 32 33
19 19 19 19 20 20 21 21 22 23 23 24 25 25 26 27 27 27 28 28 28 28 28 28 28 29 30 31 31 31 32 32 32 32 32 32 31 31 30 30 30 30 30 30 30 29 29 29 30 30 31 31 31 32 32 33 33 34 34 34 34 34 34 36 36 35 33 32 32
18 19 19 20 20 21 21 22 23 23 24 25 25 26 27 27 28 28 29 29 29 29 29 28 28 28 29 29 30 31 31 31 32 33 34 34 34 34 33 33 33 32 32 32 32 32 31 31 32 32 33 33 34 34 34 34 34 34 34 34 34 35 36 37 37 35 34 33 33
19 19 20 20 21 21 22 23 23 24 25 25 26 26 27 28 28 29 30 30 30 30 30 29 28 28 28 28 29 29 30 30 31 32 33 35 36 36 36 36 36 35 35 35 35 35 34 34 34 34 34 35 35 35 35 35 35 35 35 35 36 36 36 37 37 36 35 34 34
20 20 21 21 22 22 23 23 24 25 26 26 27 27 28 28 29 30 30 31 31 31 30 30 29 29 28 28 28 28 29 29 30 31 32 34 35 36 37 38 38 38 38 38 38 38 38 38 37 37 36 36 36 36 35 35 35 36 36 36 37 37 38 38 38 37 36 36 35
22 22 22 23 23 23 24 24 25 26 26 27 28 28 28 29 29 30 30 30 31 31 31 30 30 29 29 28 28 27 28 28 29 30 31 32 33 34 35 37 38 38 38 39 39 39 39 39 39 39 38 37 37 36 36 36 36 36 37 37 38 39 40 40 40 39 38 37 37
24 24 24 24 24 24 25 25 26 27 27 28 28 28 29 29 29 30 30 30 30 31 31 31 31 30 30 30 29 28 28 28 28 29 29 30 31 32 33 34 35 36 36 36 37 38 38 39 39 38 38 37 37 37 37 37 37 38 38 39 40 41 42 42 41 40 39 38 38
26 26 26 26 26 26 26 26 27 27 28 28 29 29 29 29 29 30 30 30 30 30 31 31 31 31 31 31 30 30 29 28 29 29 29 30 30 31 31 32 33 33 33 34 35 36 37 37 37 37 36 36 37 37 37 38 39 39 40 41 42 43 43 44 43 42 41 40 40
28 28 27 27 27 27 27 27 28 28 28 29 29 30 30 30 30 30 31 31 30 30 30 31 31 32 32 31 31 31 31 30 30 30 30 30 30 31 31 32 32 32 32 33 34 35 35 35 36 36 36 36 37 37 38 38 39 39 40 41 42 43 44 44 44 43 42 42 42
29 28 28 28 28 28 28 28 28 28 29 29 30 30 31 31 31 31 31 31 31 31 30 31 31 31 31 32 32 32 31 31 30 30 31 31 31 32 32 31 32 32 32 33 33 34 34 34 35 35 35 36 37 38 38 38 39 39 40 40 41 42 42 43 43 43 42 42 42
29 29 29 28 28 28 28 28 29 29 29 30 30 31 31 32 32 32 32 31 31 31 31 31 31 31 31 31 31 31 31 31 31 31 31 31 32 32 32 31 32 32 33 33 34 34 34 34 34 34 35 35 36 37 38 38 39 39 38 39 39 40 41 41 41 41 41 41 41
29 29 29 28 28 28 28 29 29 29 30 30 31 31 31 32 32 32 32 32 31 31 31 31 30 30 30 30 30 31 31 31 31 31 31 31 32 32 32 32 32 32 33 33 33 33 33 33 33 33 33 34 35 36 37 37 38 37 37 38 38 39 40 40 41 40 40 40 40
29 29 29 28 28 28 28 29 29 30 30 31 31 31 31 32 32 32 32 32 32 31 31 31 30 30 30 31 30 30 30 31 31 32 32 31 31 31 32 31 31 32 32 33 33 32 31 30 31 31 31 32 33 34 35 35 36 36 36 36 37 37 38 39 40 40 40 40 39
29 29 28 28 28 28 29 29 29 30 30 31 31 31 31 31 31 32 32 32 32 32 31 31 31 31 31 30 30 30 30 30 30 31 32 32 32 31 31 31 30 31 32 33 32 31 29 27 27 28 29 30 31 32 33 34 34 35 35 35 35 36 36 37 37 38 39 39 39
28 28 28 28 28 28 29 29 29 30 30 31 31 31 31 31 31 31 32 32 32 32 31 31 31 31 30 30 30 30 30 29 29 30 31 32 32 32 32 31 30 31 32 33 32 30 28 27 27 28 29 30 31 31 32 33 34 34 35 35 35 35 35 34 35 35 36 37 38
28 28 28 28 28 28 29 29 29 30 30 31 31 31 31 31 31 31 32 32 32 32 32 31 31 30 29 28 29 29 30 30 30 30 31 31 32 32 32 31 31 32 33 33 31 30 28 28 28 28 29 30 31 32 31 32 33 34 34 33 33 33 33 33 34 33 33 34 34
28 27 28 28 28 29 29 30 30 30 30 31 31 31 31 31 31 32 32 32 32 32 31 31 30 29 27 27 28 30 31 31 31 31 31 31 31 31 32 32 32 32 33 32 30 29 29 29 29 29 29 29 30 31 31 31 32 32 32 32 32 32 33 33 33 32 32 31 32
27 27 28 28 29 29 30 30 30 30 30 30 31 31 31 31 32 32 32 32 32 32 31 30 29 28 28 29 30 31 31 31 31 30 30 30 31 31 31 31 31 32 32 31 30 30 30 30 30 30 30 29 29 29 29 29 29 28 28 29 29 30 31 32 32 31 31 31 30
27 27 28 28 29 29 30 30 30 30 30 30 30 31 31 31 32 32 32 32 32 32 31 30 30 30 30 30 31 31 31 30 30 30 30 30 31 31 31 31 31 32 33 32 31 30 30 30 30 30 30 30 30 29 29 29 29 29 28 28 28 29 29 30 30 31 30 30 30
27 27 28 28 29 30 30 31 31 31 30 30 31 31 31 31 31 31 32 32 32 32 32 31 31 31 31 31 31 30 30 30 30 29 29 29 30 30 31 32 32 33 33 33 31 31 30 30 30 30 30 30 29 29 29 29 29 29 29 30 30 31 31 30 29 29 30 30 30
28 28 28 28 29 30 31 31 31 31 31 31 31 31 31 31 31 31 32 32 32 32 32 31 31 31 31 31 30 30 29 29 29 29 28 28 29 30 31 32 32 32 32 32 31 30 30 30 30 30 30 30 29 30 30 30 30 30 30 31 32 32 32 31 30 30 30 30 30
28 28 28 29 30 31 31 32 32 31 31 31 31 30 30 31 32 32 32 31 30 30 30 30 30 29 29 29 29 29 29 29 28 28 28 28 29 29 31 32 31 31 30 30 30 30 31 31 31 31 31 31 30 30 30 29 29 29 29 30 32 31 30 30 30 30 30 30 30
29 29 29 30 31 31 32 32 32 32 31 31 31 31 31 31 31 32 32 31 29 29 29 29 29 29 28 28 28 29 29 29 28 28 28 28 29 29 30 31 30 30 30 31 31 31 32 32 32 32 32 32 30 29 29 28 29 29 30 31 31 31 31 31 31 31 31 31 30
29 29 29 30 31 32 32 32 32 32 31 31 31 31 31 31 31 31 31 30 29 29 29 29 28 28 28 28 27 28 28 29 29 29 29 29 29 30 30 31 31 31 32 32 32 32 32 32 32 32 32 31 30 29 28 28 29 31 32 32 32 32 31 31 31 32 32 32 31
28 29 29 30 31 32 32 32 32 31 31 30 31 31 32 32 31 30 30 30 29 29 28 28 28 28 28 28 28 28 28 29 29 30 29 29 29 29 30 31 32 33 33 32 32 32 32 32 32 32 31 30 29 27 27 28 29 30 31 31 32 32 32 31 31 31 30 30 30
29 29 29 30 31 31 31 31 31 30 30 30 31 31 32 32 31 31 30 29 28 28 28 28 28 28 28 28 29 29 29 29 28 29 29 29 29 29 30 31 32 33 33 32 32 31 31 32 32 31 31 29 28 27 27 28 28 28 28 29 30 29 28 27 27 27 26 26 26
29 29 29 30 30 31 31 30 30 30 30 31 31 31 31 31 31 31 30 27 27 27 28 29 29 29 29 29 30 31 30 29 29 28 28 29 29 29 30 31 32 33 33 32 32 31 32 32 32 31 30 29 28 27 27 26 25 26 26 26 26 24 23 23 23 23 23 24 25
29 29 29 29 30 30 30 30 30 30 30 31 31 31 31 30 30 30 29 27 26 27 28 29 30 30 30 30 30 31 31 30 30 29 28 28 29 29 30 31 32 32 33 32 32 32 32 32 32 31 30 29 28 27 25 24 24 25 26 27 27 26 25 24 23 23 24 26 26
30 29 29 29 29 29 29 29 29 30 30 30 31 31 31 30 30 29 28 27 27 27 28 29 30 31 31 30 30 31 32 31 31 30 28 28 29 30 30 30 31 32 33 33 33 33 32 32 31 31 30 28 27 26 25 24 24 25 25 26 26 25 24 23 23 24 24 25 26
30 29 29 29 29 29 29 30 30 30 30 30 30 30 30 29 29 28 28 28 28 28 29 29 30 31 31 31 30 31 32 32 32 31 30 29 29 29 29 30 31 32 33 34 34 33 32 32 31 30 29 27 26 25 24 23 23 23 24 25 23 22 21 21 22 23 23 23 24
Wind_Direction
315 315 313 310 309 307 307 307 306 305 304 302 302 303 303 301 299 299 300 300 299 298 298 299 299 300 301 300 298 296 294 293 291 289 287 285 283 281 280 278 276 274 271 270 268 265 263 260 257 254 253 253 253 254 254 253 252 250 248 247 246 246 246 246 246 246 245 244 243
309 309 308 307 306 306 306 305 305 304 304 303 302 302 302 301 300 300 300 301 301 301 301 300 301 300 300 300 298 296 294 292 291 289 287 285 283 282 280 278 276 274 273 271 269 265 262 260 256 254 252 252 253 253 253 253 252 250 248 247 247 246 246 246 247 247 247 246 245
306 306 305 305 304 304 303 302 302 302 302 302 301 301 300 300 299 299 300 301 302 303 302 301 301 301 300 299 297 295 293 292 290 288 286 285 284 282 280 278 276 275 273 271 269 266 263 260 256 254 253 253 253 253 253 253 252 249 248 247 246 246 246 246 247 247 247 246 245
310 309 308 307 306 306 304 303 302 302 301 300 299 299 298 298 298 298 299 300 302 302 302 301 301 300 299 297 296 294 292 291 289 287 286 285 284 282 280 278 276 275 273 272 270 267 264 261 257 254 253 253 253 253 253 252 250 248 247 248 247 245 245 246 247 247 246 245 245
317 315 314 313 312 311 310 308 307 306 304 302 300 299 297 297 296 296 297 298 299 300 301 301 300 299 298 296 294 292 291 290 288 286 285 285 284 283 281 279 277 275 274 272 270 268 266 262 258 254 253 253 253 253 253 253 250 248 247 248 247 246 245 246 246 246 246 246 245
320 319 318 318 319 318 318 316 315 313 310 308 306 303 301 299 298 296 296 296 297 298 299 300 299 298 296 295 293 291 290 288 287 285 284 284 283 282 281 279 278 277 275 273 271 269 267 262 258 255 253 253 253 254 254 253 249 247 247 246 246 246 245 245 246 246 246 245 245
319 318 318 319 321 323 323 323 321 320 317 315 312 310 307 305 302 299 297 296 296 296 297 298 298 297 296 294 293 291 289 287 286 284 283 282 282 281 280 279 279 277 276 275 273 270 267 262 257 255 253 252 253 254 254 252 248 246 245 245 246 245 245 245 245 245 244 245 245
317 317 317 318 320 322 323 323 323 323 322 320 318 317 315 312 308 305 302 299 297 297 297 297 297 296 295 294 292 290 288 286 285 284 282 281 280 280 279 279 278 278 277 276 274 271 267 262 258 255 253 252 252 253 253 251 249 247 245 245 246 245 245 245 245 245 244 244 245
320 321 321 321 321 322 322 323 323 323 323 322 322 321 320 318 316 312 308 305 302 300 298 297 297 296 296 294 292 290 288 286 285 283 282 281 280 279 278 278 278 278 278 278 277 274 269 263 258 256 255 253 253 254 254 252 250 248 247 246 246 246 245 244 244 244 244 244 244
327 328 328 327 327 326 326 325 325 325 325 324 324 324 324 323 322 320 317 313 309 305 301 299 298 298 297 295 293 291 288 286 285 283 282 281 280 279 278 278 278 278 279 279 279 277 273 266 260 258 257 256 256 256 256 254 251 249 248 247 246 246 245 244 244 243 243 242 243
334 335 335 335 334 334 333 332 331 330 329 328 328 328 327 326 326 325 323 320 316 311 307 304 302 300 299 296 294 292 289 287 285 283 283 282 281 281 280 279 278 278 278 278 279 278 275 269 264 263 262 261 259 259 257 255 252 250 249 248 248 247 246 246 244 243 242 242 242
340 341 341 341 341 341 340 338 338 337 336 334 333 332 330 328 327 327 325 323 320 316 312 309 306 303 300 298 295 293 291 288 285 284 283 282 282 282 281 280 279 278 277 277 277 276 274 271 269 268 267 265 262 260 259 257 254 251 250 250 249 248 248 248 246 244 243 243 243
343 344 345 346 345 345 344 342 341 341 340 339 337 335 333 330 329 327 326 324 322 319 316 314 310 307 303 300 298 295 293 290 287 285 283 282 282 281 281 280 280 279 278 278 277 275 273 271 271 271 270 269 266 263 262 260 257 254 252 251 250 249 249 250 250 248 246 244 244
345 346 346 346 346 345 344 342 342 341 341 340 338 336 334 331 329 327 326 324 322 321 319 316 313 310 307 304 301 298 296 293 290 287 285 283 282 281 281 280 279 279 278 278 278 277 275 273 272 272 271 271 269 267 265 263 259 256 254 253 252 251 252 253 253 251 249 247 246
344 345 345 345 344 343 342 341 340 339 338 338 337 335 332 330 329 327 325 323 322 321 320 318 316 313 311 308 305 303 300 297 294 291 288 285 283 282 281 280 279 278 278 278 277 277 276 276 275 273 272 271 271 270 268 264 261 259 257 255 255 254 255 255 255 253 251 249 248
342 343 343 342 341 340 339 338 337 336 336 335 334 333 331 329 327 325 324 322 322 321 320 319 318 316 314 312 310 308 305 302 299 295 292 289 286 284 282 281 280 279 278 278 277 277 276 276 275 274 273 272 271 271 269 267 264 261 260 259 258 258 258 258 256 254 252 250 248
340 340 340 340 338 337 337 336 335 334 333 333 332 331 329 327 325 324 322 321 321 321 320 320 319 318 317 315 314 312 310 307 303 299 296 293 290 288 286 284 282 281 280 280 279 278 277 276 275 273 272 271 270 270 269 268 266 264 263 262 261 261 260 259 257 254 251 249 247
338 338 338 338 337 335 334 334 333 332 331 330 330 329 327 326 324 322 321 320 320 321 320 319 318 318 317 317 316 315 313 309 306 303 300 298 295 293 291 289 287 286 284 283 282 280 279 278 276 274 272 270 269 269 268 267 266 265 264 263 262 262 261 259 256 253 250 248 247
336 336 337 336 335 334 333 332 331 330 329 328 327 326 325 325 323 322 321 320 320 320 320 319 318 317 317 317 317 316 315 311 308 306 304 302 300 298 296 294 293 292 290 288 286 284 282 281 279 277 275 272 271 269 268 266 265 264 263 262 261 260 259 257 256 254 251 249 248
334 334 334 334 333 332 330 329 329 328 327 326 325 325 324 324 323 322 322 321 321 321 320 319 318 318 317 317 316 316 315 313 310 307 305 304 303 301 299 299 297 296 294 291 289 287 285 283 281 279 276 274 272 271 269 268 266 264 262 261 259 258 257 256 255 254 252 251 249
332 332 332 331 330 329 329 328 327 326 325 325 325 324 324 323 323 323 323 323 323 322 322 320 319 318 318 317 316 315 314 313 310 307 306 305 303 302 301 300 298 296 295 293 291 289 287 284 282 280 277 275 273 271 270 269 267 265 263 261 260 258 257 256 254 253 252 251 250
330 330 329 329 328 328 327 326 326 325 325 325 325 325 324 324 324 324 324 324 325 324 322 321 320 319 318 317 315 314 313 312 310 307 306 304 303 303 302 300 298 296 294 292 291 289 288 286 284 281 278 276 274 272 271 269 267 265 264 262 261 260 259 257 256 254 253 252 251
328 328 327 327 327 326 326 326 325 325 325 325 325 325 325 324 324 325 325 325 324 323 322 321 320 319 318 316 315 313 312 310 309 308 306 304 303 302 301 299 297 294 293 292 291 290 288 287 285 283 281 278 276 274 273 270 268 266 264 263 261 260 260 259 257 256 254 253 253
327 327 326 326 326 326 326 325 326 326 326 325 325 325 324 324 324 325 324 323 323 322 321 321 319 318 317 316 314 312 310 308 307 307 306 304 302 301 300 298 295 292 291 291 291 290 288 286 285 284 282 280 279 277 275 273 269 267 264 263 262 261 260 259 258 257 256 255 255
326 326 326 326 326 326 326 326 326 326 325 325 325 324 324 324 324 323 322 321 321 320 320 319 318 317 316 314 313 311 309 307 305 304 304 303 301 300 298 295 293 291 290 290 290 288 286 283 281 280 280 280 278 277 276 273 270 267 265 263 262 261 259 258 258 257 257 257 258
326 326 327 327 326 326 326 326 326 325 324 324 324 324 323 323 322 321 320 319 319 319 318 318 317 316 314 312 310 309 307 305 303 302 301 300 300 299 297 294 291 290 289 289 288 287 284 280 279 278 277 277 276 275 274 272 270 268 265 263 261 259 258 257 257 257 257 258 259
327 328 328 327 326 326 326 325 325 324 324 323 323 322 321 321 320 319 318 317 317 317 317 316 315 314 312 309 307 306 305 304 302 301 300 298 298 297 296 294 291 290 289 289 288 286 284 283 281 280 279 277 276 275 273 271 270 268 265 262 260 258 256 256 257 257 258 258 259
327 327 328 327 326 325 324 324 324 323 322 322 321 320 320 319 318 317 316 316 315 315 315 314 313 311 309 307 305 304 303 303 302 300 299 298 296 295 294 293 292 290 290 289 288 286 285 284 283 282 281 280 279 277 275 272 270 267 264 261 259 257 256 255 256 257 258 258 258
326 327 326 325 323 323 323 323 322 321 321 320 319 319 318 317 316 316 315 314 314 313 312 311 310 309 306 304 303 303 302 301 301 300 298 297 296 295 294 293 291 291 290 289 288 287 286 285 284 282 281 281 279 277 275 272 270 266 263 260 258 256 255 254 255 255 256 256 256
326 325 324 322 321 320 320 320 320 319 319 318 317 317 316 315 314 314 314 313 312 311 310 308 307 305 303 302 301 301 300 300 299 298 298 297 296 295 294 293 292 291 290 290 289 287 286 285 284 283 282 280 279 276 274 271 269 267 264 262 259 258 256 254 253 253 253 255 257
324 323 322 320 319 318 318 318 318 318 317 316 316 315 314 313 312 311 311 310 309 309 308 307 305 303 301 301 300 299 299 298 298 298 297 297 296 295 295 295 293 292 292 291 290 289 287 286 285 284 283 281 279 277 274 271 268 265 263 262 261 261 261 259 256 254 254 255 258
322 321 319 317 316 315 316 316 316 316 316 315 314 312 311 310 310 309 309 308 308 307 306 305 303 301 301 300 300 299 298 298 297 297 296 296 295 295 295 295 294 293 292 292 292 291 289 288 287 286 284 283 281 279 276 274 271 267 263 261 261 262 262 262 260 259 258 258 257
320 319 317 315 314 314 314 315 315 314 314 313 311 310 309 309 308 308 308 308 306 305 304 302 301 299 299 299 299 298 298 297 296 296 296 296 296 295 295 295 294 293 293 293 293 292 291 290 289 288 286 284 282 280 277 274 272 268 265 264 264 265 264 263 262 261 261 260 260
318 316 315 313 312 312 313 313 313 313 312 311 309 308 308 307 307 307 307 306 305 303 301 300 298 297 297 296 296 296 296 297 296 296 296 296 296 296 295 295 294 293 293 294 294 293 293 291 290 288 287 286 284 281 277 274 271 270 269 269 269 269 268 267 266 265 264 263 262
315 314 312 311 311 311 311 311 311 311 310 308 307 307 307 307 306 305 305 305 304 302 300 299 298 297 296 296 295 295 296 296 297 297 297 297 297 297 295 294 293 294 294 295 295 294 293 292 291 289 288 286 284 281 277 274 273 272 272 271 271 271 271 270 269 268 266 265 263
313 311 310 310 309 309 309 309 309 308 307 306 306 306 306 306 306 305 305 305 304 302 300 299 299 298 297 297 296 296 296 296 297 297 297 297 297 296 295 295 294 295 296 296 296 295 294 293 291 290 289 287 284 280 276 275 274 273 272 272 272 271 271 271 269 267 266 265 264
310 310 309 308 308 308 307 307 307 306 305 304 305 305 306 306 305 305 305 305 303 302 300 300 299 299 298 298 298 297 297 296 296 296 297 297 297 296 295 295 295 296 297 298 297 296 295 294 292 291 289 287 284 280 277 275 274 272 271 271 271 271 270 269 268 267 267 268 268
309 309 308 307 306 306 306 306 305 304 303 304 304 305 305 305 304 305 305 304 302 301 300 300 299 299 298 298 299 298 297 296 296 296 295 296 296 296 296 296 296 297 298 299 298 297 296 295 293 292 290 287 285 282 280 277 274 273 272 272 272 271 270 270 270 271 272 273 274
308 308 307 306 305 305 304 304 303 302 302 303 303 304 304 304 303 303 303 303 301 300 299 299 299 298 299 299 299 299 298 297 297 296 295 294 295 295 296 296 296 297 298 299 299 298 297 295 294 292 290 288 285 283 281 278 276 274 274 274 274 274 274 274 275 276 275 275 275
307 307 307 305 304 304 303 302 301 301 302 302 302 302 302 302 302 302 302 302 300 299 299 298 298 298 299 299 299 299 298 297 297 296 295 294 294 295 296 296 296 297 299 299 299 299 297 296 294 293 291 289 286 283 280 277 275 273 273 274 274 275 275 275 276 276 275 273 274
307 307 306 305 304 303 302 301 301 301 301 301 300 301 301 301 301 301 301 301 301 300 299 299 298 298 298 299 299 298 298 297 297 297 296 296 295 296 296 296 297 298 299 300 300 300 298 297 295 294 293 290 287 283 279 275 272 272 273 274 273 273 273 274 275 276 275 274 274
Height
828 827 826 825 825 824 823 822 821 820 819 819 818 817 816 815 814 813 812 811 810 809 808 807 806 806 805 804 804 803 802 802 801 801 800 800 800 799 799 799 799 799 799 799 799 799 799 800 800 800 800 799 799 799 798 798 798 798 799 799 798 798 799 799 798 797 797 797 798
827 826 825 825 824 822 821 820 820 819 818 817 816 815 815 814 813 811 810 810 809 808 807 806 805 804 803 803 802 801 800 800 799 799 798 798 797 797 797 797 796 796 796 796 796 797 797 797 797 797 797 797 796 796 795 795 795 796 796 795 795 796 796 796 795 795 795 795 795
825 825 824 823 822 821 820 819 818 817 816 815 815 814 813 812 811 810 809 808 807 806 805 804 803 802 802 801 800 800 799 798 797 797 796 796 795 795 795 795 794 794 794 794 794 794 794 795 795 795 794 794 794 793 792 792 793 793 793 793 793 793 793 793 792 792 792 792 792
824 823 822 821 820 819 818 817 816 815 814 813 813 812 811 810 809 808 807 806 805 805 804 802 801 800 800 799 798 798 797 796 795 795 794 794 793 793 792 792 792 792 791 791 791 791 791 792 792 792 792 791 790 790 790 790 790 790 790 790 790 790 790 789 789 789 789 789 789
823 822 821 820 819 818 816 815 814 813 812 811 810 809 808 808 807 806 805 804 803 802 802 801 800 799 798 797 797 796 795 794 794 793 792 791 791 790 790 790 790 789 789 789 789 789 789 790 790 790 789 788 788 787 786 787 787 788 787 787 787 787 787 786 786 786 786 786 786
821 820 819 818 817 816 815 814 813 812 810 809 808 807 806 805 804 803 802 802 801 800 800 799 798 797 796 795 795 794 793 792 792 791 790 789 789 788 788 787 787 787 787 786 786 786 787 787 787 787 786 786 785 784 784 784 785 785 785 784 784 784 783 783 783 783 783 783 782
820 819 818 817 816 815 814 812 811 810 809 808 806 805 804 803 802 801 800 800 799 798 797 797 796 795 794 794 793 792 791 790 790 789 788 787 787 786 786 785 785 785 784 784 784 784 784 784 785 784 784 783 782 781 781 781 782 782 781 781 780 780 780 780 779 780 780 779 779
818 817 816 815 814 813 812 811 810 809 807 806 805 804 803 801 800 799 798 797 796 796 795 794 794 793 792 792 791 790 790 789 788 787 786 785 785 784 784 783 783 782 782 782 782 781 781 782 781 781 780 780 780 779 778 778 779 778 778 777 777 777 777 776 776 776 776 775 775
817 815 815 814 813 812 810 810 808 807 806 805 804 802 801 800 799 798 796 795 795 794 793 792 791 790 790 789 789 788 788 787 786 785 785 784 783 782 782 781 781 780 780 780 779 779 779 779 779 778 778 777 776 776 775 775 775 775 774 774 774 774 773 773 772 772 772 772 771
815 814 813 812 811 810 809 808 807 806 805 803 802 801 800 799 797 796 795 794 793 792 791 790 789 788 787 787 786 786 785 785 785 784 783 782 781 780 780 779 779 778 778 777 777 777 776 776 776 775 775 774 774 773 772 773 773 772 771 771 771 770 770 770 769 769 769 768 768
814 813 812 811 810 809 808 806 805 804 803 802 800 799 798 797 796 795 793 792 791 790 789 788 787 786 785 784 784 783 783 783 782 782 781 780 780 779 778 777 777 776 775 775 775 774 774 773 773 772 772 771 771 770 770 770 770 769 769 768 768 767 767 766 766 766 766 765 764
813 812 811 810 809 807 806 805 804 803 801 800 799 798 796 795 794 793 792 790 789 788 787 786 785 784 783 782 781 781 780 780 780 779 779 778 777 777 776 775 775 774 773 773 772 772 771 770 770 769 769 768 768 768 767 767 767 767 766 765 765 765 764 763 763 763 763 763 762
812 811 810 809 807 806 805 804 803 801 800 799 797 796 795 794 793 791 790 789 788 786 785 784 783 782 781 780 779 778 778 777 777 776 776 775 775 774 774 773 772 772 771 770 770 769 768 767 767 766 766 765 765 765 765 764 764 764 763 763 763 762 761 760 760 761 761 761 760
811 810 809 807 806 805 804 802 801 800 799 797 796 795 794 792 791 790 789 787 786 785 784 783 781 780 779 778 777 776 775 775 774 774 773 772 772 771 770 770 769 769 768 768 767 767 766 765 764 764 763 763 762 762 762 761 761 761 760 760 760 759 759 758 758 759 759 759 759
810 809 807 806 805 804 802 801 800 799 797 796 795 794 792 791 790 789 787 786 785 783 782 781 780 779 777 776 775 774 773 772 771 771 770 769 769 768 767 767 766 766 765 765 764 764 763 762 761 761 760 760 759 759 759 759 758 758 757 757 756 756 756 755 756 756 756 756 756
809 808 806 805 804 802 801 800 799 797 796 795 793 792 791 790 788 787 786 784 783 781 780 779 778 776 775 775 774 772 771 770 769 768 767 766 765 765 764 764 763 762 762 761 761 760 760 759 758 757 757 756 756 756 756 755 755 755 754 754 753 753 752 752 752 752 752 752 752
808 806 805 804 802 801 800 799 797 796 794 793 792 790 790 788 787 785 784 783 781 780 778 777 776 775 773 772 771 771 770 768 767 766 765 763 762 762 761 760 760 759 759 758 758 757 756 755 754 753 752 752 751 751 751 751 751 751 750 750 749 748 748 747 747 747 747 746 746
806 805 804 802 801 800 798 797 796 794 793 792 790 789 788 787 785 784 783 781 780 779 777 775 774 773 772 770 769 769 768 766 765 764 762 761 760 759 758 757 757 756 756 755 754 754 753 752 751 750 749 748 747 746 746 746 746 745 745 745 744 743 742 742 742 742 742 742 741
805 804 802 801 800 798 797 795 794 793 792 790 789 788 786 785 784 782 781 780 779 777 775 774 772 771 770 769 767 766 765 764 763 761 760 759 758 757 756 755 754 753 753 752 751 750 750 749 749 748 747 746 745 744 742 742 741 740 740 739 739 738 737 736 736 737 737 737 736
803 802 801 800 798 797 795 794 793 791 790 789 787 786 785 783 782 781 779 778 776 775 774 772 770 769 768 766 765 764 763 762 760 759 758 756 755 754 753 752 751 750 750 749 748 747 746 746 745 745 745 744 743 742 740 740 738 737 736 736 735 734 732 732 731 731 731 732 732
802 800 799 798 797 795 794 792 791 790 788 787 786 784 783 781 780 779 777 776 775 773 772 770 769 767 766 764 763 762 760 760 758 757 755 754 753 752 751 750 749 747 746 745 745 744 743 742 742 742 741 740 740 739 738 737 736 735 734 733 732 731 730 729 728 727 727 727 727
800 799 798 796 795 794 792 791 789 788 787 785 784 782 781 780 778 777 775 774 773 771 770 768 767 765 764 763 761 760 758 757 756 755 753 752 750 749 748 748 746 745 743 742 741 741 740 740 739 739 738 737 736 735 735 734 733 732 731 730 729 729 728 727 726 725 725 724 724
798 797 796 794 793 792 790 789 787 786 785 783 782 780 779 778 776 775 773 772 770 769 768 766 765 764 762 760 759 758 756 755 753 752 751 750 748 747 746 745 744 742 741 740 739 738 738 737 736 735 735 734 733 732 731 730 730 729 728 727 726 725 725 724 724 723 722 721 721
796 795 794 792 791 790 788 787 785 784 783 781 780 779 777 776 774 773 771 770 769 767 766 764 763 761 760 758 757 755 754 752 751 749 748 747 746 745 744 742 741 740 738 737 736 736 735 735 734 733 732 731 730 729 728 727 726 725 725 724 723 722 721 721 720 720 719 719 719
795 793 792 790 789 788 786 785 784 782 781 780 778 777 775 774 772 771 770 768 766 765 764 762 761 759 758 756 755 753 752 750 749 747 745 744 743 742 741 740 739 737 736 735 734 734 734 733 732 731 730 729 727 726 725 724 723 722 721 720 720 719 718 717 717 716 716 715 715
793 791 790 789 787 786 785 784 782 781 779 778 776 775 774 772 771 769 768 766 765 763 762 760 759 757 756 754 753 751 750 749 747 746 744 742 741 740 739 738 736 735 733 732 732 731 731 731 730 730 728 727 725 724 722 721 719 719 718 717 717 716 715 714 714 713 713 712 712
791 790 788 787 785 784 783 782 780 779 778 776 775 773 772 770 769 768 766 765 763 761 760 759 757 755 754 752 751 749 748 746 745 744 742 740 739 737 736 735 733 732 730 730 729 729 729 728 728 727 726 725 724 722 720 718 717 715 715 714 713 713 712 711 710 710 710 710 709
789 788 786 785 784 782 781 780 779 777 776 775 773 771 770 769 767 766 764 763 761 760 758 756 755 754 752 750 749 747 745 744 743 741 740 739 737 735 734 732 731 729 728 727 727 726 726 725 725 724 723 722 721 720 718 716 715 713 712 711 710 710 709 708 708 707 707 707 707
788 786 785 784 782 780 779 778 777 775 774 773 771 770 768 767 765 764 762 761 759 758 756 755 753 752 750 749 747 745 743 742 741 739 738 736 735 733 732 730 729 727 726 725 725 724 723 723 722 721 720 719 718 717 715 714 712 711 710 708 707 706 705 705 705 704 704 704 704
786 785 784 782 780 779 778 776 775 774 772 771 770 768 766 765 763 762 760 759 757 756 755 753 751 750 748 746 745 743 741 740 738 737 736 734 732 731 729 728 726 725 723 723 722 721 721 720 719 718 717 716 715 714 712 711 710 708 707 706 705 703 702 701 701 701 700 700 700
785 784 782 780 779 777 776 775 774 772 771 769 768 766 765 763 761 760 759 757 755 754 752 751 749 747 745 744 742 741 739 737 736 735 733 732 730 729 727 725 724 722 721 720 720 719 718 717 716 715 714 713 712 711 709 708 706 705 704 703 702 701 700 699 698 698 697 697 697
783 782 780 779 777 776 774 773 772 770 769 767 766 765 763 761 760 758 757 755 753 751 750 748 746 745 743 741 740 738 737 735 734 732 731 730 728 726 725 723 721 719 718 718 717 716 715 714 713 712 711 710 709 708 706 705 704 702 700 699 698 698 697 697 696 695 695 694 694
782 780 779 778 776 774 773 771 770 769 767 765 764 763 761 759 757 756 755 753 751 750 748 746 744 742 740 739 737 735 734 733 731 730 729 727 726 724 722 720 719 717 716 715 715 714 713 711 710 709 708 707 706 705 703 702 700 699 698 696 695 695 694 694 693 692 692 691 691
780 779 778 776 775 773 771 770 768 767 765 764 762 760 759 757 755 754 752 751 750 748 746 744 742 740 739 737 735 734 732 730 729 727 726 725 723 722 720 718 716 715 714 713 712 711 710 709 707 706 705 704 703 702 700 699 697 696 695 693 692 692 691 691 690 690 689 689 689
779 778 776 775 773 771 770 768 767 765 764 762 760 758 757 755 754 752 750 749 747 745 744 742 740 738 736 735 734 732 730 728 726 725 724 723 721 719 717 715 713 712 711 710 710 708 707 706 705 703 702 701 700 698 697 695 694 693 691 690 690 689 689 688 688 687 687 686 686
778 776 775 773 771 770 768 766 765 763 762 760 758 756 755 753 752 750 749 747 745 743 741 739 738 736 734 732 731 730 728 726 724 722 721 720 719 717 715 712 710 709 708 708 707 705 704 703 702 700 700 699 697 695 694 692 691 690 688 688 687 686 686 685 685 685 684 684 683
776 775 773 771 770 768 766 765 764 762 760 758 757 755 753 751 750 748 747 746 744 741 739 737 735 734 732 730 729 727 725 724 722 720 719 717 716 715 712 710 708 706 705 705 704 703 701 700 699 698 697 695 694 692 690 689 688 686 685 685 684 683 683 683 682 682 681 681 681
774 773 772 770 768 766 765 764 762 760 758 756 755 754 752 750 748 746 745 744 742 740 737 735 733 731 730 728 726 724 722 721 720 719 717 715 714 712 710 708 705 703 702 702 701 700 699 697 696 695 694 693 691 690 688 686 685 684 682 681 681 680 680 680 680 679 679 679 679
772 771 770 769 767 765 763 762 760 759 757 755 753 751 750 749 746 745 743 742 740 738 736 733 731 729 728 726 724 722 720 718 717 716 715 713 711 710 709 706 703 701 700 699 698 697 696 694 693 692 691 690 689 687 685 684 682 681 680 679 679 678 678 677 677 677 676 676 676
770 769 768 767 765 763 761 760 758 757 755 754 752 750 748 746 745 743 741 740 738 737 735 732 729 727 725 724 722 720 717 715 714 713 712 711 709 708 706 704 702 699 697 696 695 694 693 691 690 689 688 688 686 685 683 682 680 679 678 677 676 675 675 675 675 675 674 673 673
769 767 766 765 763 762 760 758 756 755 753 752 750 748 746 745 743 741 739 738 736 735 733 730 727 725 723 722 720 718 715 712 711 710 709 708 706 705 704 702 700 697 695 694 692 691 690 689 687 686 686 685 684 682 681 680 678 676 675 674 674 673 673 672 672 672 671 671 670